地球静止运行环境卫星 16星 (GOES 16)

导读 | 星芒AI

GOES 16(现称GOES-East)是美国国家气象局(NOAA)于2016年发射的先进静止气象卫星,属于GOES-R系列。它位于地球静止轨道,提供高分辨率的可见光和红外图像,用于监测天气、风暴、火山灰和森林火灾等。GOES 16搭载先进仪器,如ABI(先进基尔霍夫辐射计)和GLM(闪电测绘仪),显著提升了天气预报的准确性和时效性,对灾害预警和气候研究具有重要意义。

基本信息
目录编号:
41866
目录名称:
GOES 16
国际标识:
2016-071A
轨道中心:
EARTH
卫星名称:
地球静止运行环境卫星 16星
卫星全名:
地球静止运行环境卫星 16星 (GOES 16)
卫星状态:
在轨 (已飞行3266 天)
发射日期:
2016-11-19 UTC
国别 :
美国 (US)
星等 :
--
轨道信息
数据来源 国际轨道数据 AOE轨道数据
星历时间 2025-10-28T22:36:35+0800
17小时前
查看轨道信息
2025-10-28T16:00:00+0800
23小时前
查看轨道信息
半长轴 42164.672km 42164.616km
偏心率 0.0002685 0.0002666
轨道倾角 0.073° 0.074°
近地点辐角 159.824° 160.829°
升交点赤经 74.036° 73.061°
平近点角 277.832° 178.385°
近地点 35775.215km 35775.239km
远地点 35797.859km 35797.723km
周期 1436.094分钟 1436.091分钟
每日圈数 1.00272 1.002722
详细信息
卫星平台:
LM-A2100A
平衡模式:
三轴稳定
覆盖范围:
全球
制造商(研发单位):
洛克希德·马丁公司
制造商所在国:
美国
使用方式:
暂无
卫星简介
地球静止环境业务卫星是美国国家海洋和大气管理局(NOAA)与美国国家航空航天局(NASA)共同发展的民用静止轨道气象系列卫星。[1]美国第一代地球静止轨道气象卫星系列。英文缩写为GOES。该卫星仍在工作。
2D轨道图
3D轨道图
轨道高度分析图
轨道倾角分析图
轨道综合分析图
查看轨道综合分析图